Temperature
3 3 3 3 3 3 3 5 5 6 6 6 6 5 4 3 3 2 2 2 2 2 2 1 2 2 2 1 1 1 1 1 1 1 1 1 1 1 1 1 1 1 1 1
2 2 2 2 3 3 3 3 4 4 5 5 5 4 3 3 2 2 2 1 1 1 1 1 1 1 1 1 1 1 1 1 1 0 1 1 1 0 0 0 0 0 0 0
3 2 1 3 3 3 3 3 3 4 5 4 4 3 3 3 2 2 1 1 1 1 1 1 1 1 1 0 0 0 0 0 0 -0 -0 -0 -0 -0 -0 -0 -0 -0 -0 -0
2 1 2 5 3 3 3 3 3 3 3 3 3 2 2 2 1 1 1 0 0 0 1 0 0 0 0 -0 -0 -0 -0 -0 -0 -0 -1 -1 -1 -1 -1 -1 -1 -1 -0 -0
1 2 4 4 2 2 2 3 2 2 2 2 1 1 1 1 1 1 0 0 0 0 0 0 -0 -0 -0 -1 -1 -1 -1 -1 -1 -1 -1 -1 -1 -1 -1 -1 -1 -1 -1 -1
1 2 3 4 2 1 2 3 2 1 1 1 1 3 3 1 0 0 0 0 -0 -0 -0 -0 -1 -1 -1 -1 -1 -1 -1 -1 -1 -2 -2 -2 -2 -2 -2 -2 -1 -1 -1 -1
1 2 3 2 -0 1 3 3 1 1 1 0 1 1 1 0 0 -0 -0 -0 -0 -1 -1 -1 -1 -1 -1 -1 -1 -2 -2 -2 -2 -2 -2 -2 -2 -2 -2 -2 -2 -2 -2 -2
0 1 2 0 -0 1 2 1 0 0 0 -0 -0 -0 -0 -0 -1 -1 -1 -1 -1 -1 -1 -2 -2 -2 -2 -2 -2 -2 -2 -2 -2 -2 -2 -2 -2 -2 -2 -2 -2 -2 -2 -2
1 2 1 -1 -0 -0 -0 -0 -1 -1 -1 -1 -1 -1 -1 -1 -1 -1 -1 -1 -1 -2 -2 -2 -2 -2 -2 -2 -3 -3 -3 -3 -3 -3 -3 -3 -3 -3 -3 -3 -3 -3 -3 -3
-1 -0 -1 -2 -1 -1 -1 -1 -1 -1 -1 -1 -1 -1 -1 -2 -2 -2 -2 -2 -2 -2 -2 -2 -2 -3 -3 -3 -3 -3 -3 -3 -3 -3 -3 -3 -3 -3 -3 -3 -4 -4 -4 -4
-2 -1 -2 -2 -2 -1 -1 -1 -1 -1 -1 -1 -2 -2 -2 -2 -2 -2 -2 -2 -2 -3 -3 -3 -3 -3 -3 -3 -4 -4 -4 -4 -4 -4 -4 -4 -4 -4 -4 -4 -4 -4 -4 -4
0 -1 -1 -1 -1 -1 -2 -2 -2 -2 -2 -2 -2 -2 -3 -3 -3 -3 -3 -3 -3 -3 -3 -3 -3 -3 -4 -4 -4 -4 -4 -4 -4 -4 -4 -5 -4 -4 -4 -4 -4 -4 -5 -5
-1 -1 -2 -2 -2 -2 -2 -2 -2 -2 -2 -3 -3 -3 -3 -3 -3 -3 -4 -4 -4 -4 -4 -4 -4 -4 -4 -4 -4 -5 -5 -5 -5 -5 -5 -5 -5 -5 -5 -5 -5 -5 -5 -5
-2 -2 -3 -3 -3 -3 -3 -3 -3 -3 -3 -3 -3 -3 -3 -3 -4 -4 -4 -4 -4 -4 -4 -4 -4 -4 -4 -5 -5 -5 -5 -5 -5 -5 -5 -5 -5 -5 -5 -5 -5 -5 -5 -5
-3 -3 -3 -3 -3 -3 -3 -3 -3 -3 -3 -3 -4 -4 -4 -4 -4 -4 -4 -4 -5 -5 -5 -5 -5 -5 -5 -5 -5 -5 -5 -5 -5 -6 -6 -6 -6 -6 -6 -6 -6 -6 -5 -5
-4 -4 -4 -4 -4 -4 -4 -4 -4 -4 -4 -4 -4 -4 -4 -5 -5 -5 -5 -5 -5 -5 -5 -5 -5 -5 -5 -5 -6 -6 -6 -6 -6 -6 -6 -6 -6 -6 -6 -6 -6 -6 -6 -6
-5 -5 -4 -4 -4 -4 -4 -4 -4 -4 -5 -5 -5 -5 -5 -5 -5 -5 -5 -5 -5 -5 -5 -6 -6 -6 -6 -6 -6 -6 -6 -6 -6 -6 -6 -6 -6 -6 -6 -6 -6 -6 -6 -6
-4 -4 -4 -4 -4 -4 -4 -5 -5 -5 -5 -5 -5 -5 -5 -5 -6 -6 -6 -6 -6 -6 -6 -6 -6 -6 -6 -6 -6 -6 -6 -6 -6 -6 -6 -7 -7 -7 -7 -7 -7 -7 -7 -7
-4 -4 -5 -5 -5 -5 -5 -5 -5 -5 -5 -5 -5 -6 -6 -6 -6 -6 -6 -6 -6 -6 -6 -6 -6 -6 -6 -6 -6 -7 -7 -7 -7 -7 -7 -7 -7 -7 -7 -7 -7 -7 -7 -7
-5 -5 -5 -5 -5 -5 -5 -5 -5 -5 -6 -6 -6 -6 -6 -6 -6 -6 -6 -7 -7 -7 -6 -7 -7 -7 -7 -7 -7 -7 -7 -7 -7 -7 -7 -7 -7 -7 -7 -7 -7 -7 -7 -7
-5 -5 -5 -5 -5 -5 -5 -6 -6 -6 -6 -6 -6 -6 -6 -6 -7 -7 -7 -7 -7 -7 -7 -7 -7 -7 -7 -7 -7 -7 -7 -7 -7 -7 -8 -8 -7 -7 -7 -8 -8 -8 -7 -7
-5 -5 -5 -5 -6 -6 -6 -6 -6 -6 -6 -7 -7 -7 -7 -7 -7 -7 -7 -7 -7 -7 -7 -7 -7 -7 -7 -7 -7 -7 -7 -8 -8 -8 -8 -8 -8 -8 -8 -8 -8 -8 -8 -8
-6 -6 -6 -6 -6 -6 -6 -6 -7 -7 -7 -7 -7 -7 -7 -7 -7 -7 -7 -7 -7 -7 -8 -8 -8 -8 -8 -8 -8 -8 -8 -8 -8 -8 -8 -8 -8 -8 -8 -8 -8 -8 -8 -8
-6 -6 -6 -6 -6 -6 -7 -7 -7 -7 -7 -7 -7 -7 -8 -8 -8 -8 -8 -8 -8 -8 -8 -8 -8 -8 -8 -8 -8 -8 -8 -8 -8 -8 -8 -8 -8 -8 -8 -8 -8 -8 -8 -8
-7 -7 -7 -7 -7 -7 -7 -7 -7 -7 -7 -8 -8 -8 -8 -8 -8 -8 -8 -8 -8 -8 -8 -8 -8 -8 -8 -8 -8 -8 -8 -8 -8 -8 -8 -8 -8 -8 -8 -8 -8 -8 -8 -8
-7 -7 -7 -7 -7 -7 -7 -8 -8 -8 -8 -8 -8 -8 -8 -8 -8 -8 -8 -8 -8 -9 -9 -8 -8 -8 -9 -9 -9 -8 -8 -8 -8 -8 -8 -8 -8 -8 -8 -8 -8 -8 -8 -8
-7 -7 -8 -8 -8 -8 -8 -8 -8 -8 -8 -8 -9 -9 -9 -9 -9 -9 -9 -9 -9 -9 -9 -9 -9 -9 -9 -9 -9 -9 -9 -9 -9 -9 -9 -8 -8 -8 -8 -8 -8 -8 -8 -8
Wind_Speed
9 7 5 8 10 12 14 13 12 12 12 11 8 7 5 4 3 3 3 2 2 2 2 1 1 2 2 2 2 2 2 2 3 3 3 3 3 3 3 3 3 3 3 3
7 7 7 9 12 14 15 14 15 14 14 9 7 6 6 6 5 5 4 4 3 3 2 2 2 2 2 3 3 2 2 3 3 3 3 3 3 3 4 3 3 3 3 3
6 5 5 11 13 14 12 12 12 15 13 6 6 7 7 7 6 6 6 5 4 4 3 3 3 3 3 3 3 2 3 3 2 3 3 3 3 3 4 4 4 4 4 4
4 3 9 6 3 9 12 13 12 10 8 7 7 7 6 6 7 6 5 5 5 4 4 4 3 3 3 3 3 3 3 3 3 3 3 3 3 3 4 3 4 4 4 4
4 6 10 7 4 5 8 9 9 11 9 6 3 4 4 4 5 5 5 5 4 4 3 3 3 2 2 2 2 3 3 3 3 3 3 3 4 4 4 4 4 4 4 4
5 6 8 5 2 3 4 8 6 7 8 6 3 5 5 2 3 4 4 3 3 2 2 2 2 2 2 2 3 3 4 4 3 3 3 4 4 4 4 4 4 3 4 4
8 8 8 3 1 4 6 4 2 5 7 6 6 6 3 2 2 2 2 2 1 2 2 2 2 1 2 3 3 4 4 4 4 4 4 4 4 4 4 4 3 3 3 4
6 7 8 2 5 6 4 2 2 3 4 5 5 4 2 2 2 2 2 2 2 2 2 2 1 2 3 3 4 3 3 3 4 4 3 3 4 4 3 3 3 3 3 4
8 7 3 5 5 4 2 3 3 3 3 3 3 4 3 3 3 2 2 2 2 2 2 2 2 2 3 4 4 3 3 3 4 4 3 3 4 4 4 4 3 3 3 3
6 8 6 6 6 4 3 3 3 3 3 3 4 4 3 3 3 3 3 2 2 2 2 3 3 3 4 4 3 3 3 4 3 3 3 3 3 3 3 4 4 4 4 4
8 7 6 7 7 6 4 3 3 2 3 4 4 4 4 3 4 3 3 3 2 3 3 4 3 4 4 4 3 3 3 3 3 3 3 3 3 3 4 4 4 4 4 4
8 6 6 5 4 5 4 5 5 4 4 4 4 5 4 4 4 3 3 3 3 3 4 4 4 4 4 3 3 3 3 3 3 3 3 3 3 3 3 4 5 6 6 6
6 4 4 4 3 3 4 5 4 4 4 4 3 4 4 4 3 3 4 4 4 4 4 4 4 4 4 4 3 4 4 4 3 3 3 3 3 3 4 4 4 5 6 6
5 3 3 4 4 3 3 3 2 2 2 3 2 3 3 4 4 4 5 4 4 4 4 4 5 5 5 4 3 4 4 4 4 3 3 4 4 4 4 4 4 4 4 6
6 5 5 3 2 2 1 1 2 2 2 2 2 3 3 4 5 5 5 4 4 4 5 5 5 6 4 4 4 4 4 4 3 4 4 4 4 4 4 4 4 4 4 4
4 4 4 4 4 3 2 3 3 4 4 4 4 4 4 4 5 5 4 4 4 5 5 5 6 5 4 4 4 4 4 5 4 4 4 4 4 4 4 4 4 4 4 4
5 5 5 4 5 4 4 4 4 4 4 4 4 4 3 4 4 4 4 4 5 6 6 6 6 5 4 4 4 4 4 4 5 4 4 4 4 4 4 4 4 4 4 4
6 6 6 5 5 4 4 4 4 4 4 4 3 3 3 4 5 5 5 4 4 5 5 5 5 5 5 5 4 4 4 4 4 4 4 4 4 4 4 4 4 5 4 4
2 3 3 3 3 3 3 3 3 3 3 3 3 4 5 5 5 5 5 4 5 6 5 5 6 6 5 5 5 4 4 4 4 4 4 4 4 4 4 4 4 4 4 4
1 1 1 1 1 2 2 2 3 3 3 3 3 4 5 5 5 4 4 5 5 5 5 5 5 5 5 5 5 4 4 4 4 4 4 4 4 4 4 4 4 4 4 4
1 1 1 1 1 1 2 2 2 3 3 3 3 4 5 5 5 4 4 5 5 4 5 6 4 4 4 4 5 4 4 4 4 4 4 4 4 4 4 4 4 4 4 4
1 1 1 1 1 2 2 2 2 3 3 3 4 4 5 5 5 5 5 5 6 6 4 4 4 5 5 4 3 4 4 4 4 4 4 4 4 4 4 4 4 4 4 4
1 2 2 2 2 2 2 2 2 3 3 4 4 5 5 5 4 4 5 4 4 6 5 4 5 6 5 3 3 4 4 4 4 4 4 4 5 4 4 5 4 4 4 4
1 2 2 2 1 2 2 3 3 3 3 4 4 4 5 5 4 4 5 6 6 6 5 5 6 6 5 3 3 4 4 4 4 4 4 4 4 4 4 4 4 4 4 4
2 2 1 1 2 2 3 3 3 3 3 3 4 4 4 4 4 4 4 5 6 6 4 5 6 6 4 3 3 4 4 4 4 4 4 4 4 4 4 4 4 4 4 4
2 2 2 3 3 2 2 2 3 3 3 4 4 4 4 4 4 4 4 4 5 5 4 3 4 4 3 3 4 4 4 4 4 4 4 4 5 5 5 5 5 4 4 4
1 2 2 2 2 2 2 3 3 4 4 4 5 4 4 4 3 3 4 3 3 3 3 3 3 3 3 3 4 4 4 4 4 4 4 4 4 4 4 4 4 4 4 4
Wind_Direction
263 272 245 237 230 217 219 229 239 250 251 257 251 248 245 235 229 222 219 229 250 261 274 296 313 315 312 314 322 320 301 293 293 295 292 288 285 284 274 265 265 263 258 261
263 255 249 253 242 230 232 238 244 257 262 265 259 248 241 234 227 227 236 243 250 257 268 280 292 300 305 310 315 310 299 295 301 299 295 293 291 286 280 274 267 262 260 260
253 262 268 255 237 224 228 229 230 243 253 251 249 245 242 239 233 238 244 246 247 251 258 268 274 279 289 304 304 301 297 288 289 291 292 294 294 287 282 277 273 268 263 263
243 229 241 253 238 219 230 238 231 243 257 250 251 255 250 239 232 245 249 251 255 260 266 272 280 283 289 296 295 293 290 286 286 290 292 298 297 292 287 280 272 270 271 269
214 237 261 260 227 212 222 248 230 236 250 258 269 263 250 234 239 248 249 252 255 261 266 272 277 282 287 293 293 290 290 290 287 286 287 287 288 291 290 281 275 274 276 272
209 231 243 258 214 217 211 251 224 221 229 231 214 243 251 244 257 264 257 255 257 257 260 266 282 286 278 284 288 285 287 288 288 280 277 279 283 288 289 283 278 280 280 281
222 235 257 273 168 168 208 257 207 218 222 218 228 251 266 239 255 260 261 257 246 241 252 262 269 271 276 283 283 287 287 284 283 278 278 278 281 283 283 280 277 278 283 289
210 226 244 170 157 201 250 323 242 233 230 228 246 262 256 233 238 249 257 260 245 246 269 282 269 260 278 287 294 294 284 278 279 282 283 278 277 280 275 270 270 273 277 288
211 229 269 190 216 243 263 255 262 258 252 233 239 250 251 245 243 245 247 252 249 241 269 288 282 260 272 287 296 290 279 276 279 280 279 275 273 274 274 265 261 266 269 277
243 254 252 238 249 256 251 250 259 257 241 219 229 238 243 244 248 253 251 252 248 246 265 281 285 281 279 289 290 282 276 277 276 274 277 277 273 269 268 266 262 263 268 275
245 263 265 248 239 242 246 251 247 247 236 223 221 231 236 245 252 256 260 262 250 246 257 273 285 286 290 292 290 282 279 278 278 275 273 277 276 275 271 268 267 264 266 269
236 232 230 244 231 219 221 236 239 243 249 242 231 231 243 252 257 255 257 263 262 260 264 273 280 285 290 290 283 274 273 274 276 275 275 277 283 293 298 282 288 277 271 273
248 249 245 255 242 229 228 235 242 238 235 242 241 234 243 257 261 259 261 261 262 264 267 273 279 282 287 288 278 266 265 269 271 271 271 275 277 279 290 299 291 287 285 279
236 232 244 241 244 246 243 242 246 250 247 238 246 248 246 257 261 260 261 262 264 265 266 267 271 276 282 282 273 266 263 263 264 265 266 268 270 272 276 285 293 295 290 284
231 235 235 241 247 250 233 216 218 243 252 258 252 247 249 253 259 265 269 268 264 262 262 264 267 273 279 273 266 263 261 259 260 261 262 263 266 269 270 273 279 285 289 289
224 228 220 219 225 226 228 228 233 249 253 255 254 256 257 258 264 271 270 259 255 261 265 267 268 274 277 268 264 261 259 258 262 262 260 260 261 263 266 268 273 277 278 282
192 212 210 217 227 235 241 243 243 247 252 253 257 264 266 264 268 269 270 266 262 264 267 266 270 276 274 268 265 264 263 258 256 261 258 258 260 262 266 268 270 274 276 274
214 218 213 213 223 237 248 248 245 246 255 262 263 262 258 254 261 270 276 280 278 275 271 268 271 274 272 268 263 261 258 260 256 257 258 256 260 262 265 267 270 273 278 277
201 209 214 223 228 228 239 249 255 261 267 264 261 261 264 263 264 269 274 274 273 277 279 276 273 270 269 263 260 256 252 253 256 258 260 260 262 261 262 264 267 270 273 271
198 208 218 240 246 235 242 258 266 268 269 263 260 265 270 272 270 270 269 268 267 274 280 279 275 271 266 259 257 254 249 250 253 256 255 255 258 261 262 262 264 266 267 266
203 216 226 243 262 268 258 258 256 261 271 265 256 262 271 278 276 269 267 275 280 277 277 277 273 269 263 261 256 251 248 249 249 250 251 254 257 259 262 263 264 263 265 264
226 230 252 260 258 277 285 275 259 261 272 273 270 270 274 279 278 272 263 268 280 286 285 276 269 269 269 264 253 249 248 247 248 249 249 250 253 256 259 262 263 263 264 263
246 246 254 258 258 271 286 276 262 263 267 271 272 271 271 274 273 272 280 282 282 282 281 273 273 274 275 267 256 249 247 246 247 249 250 251 252 254 257 260 261 262 263 264
246 254 261 272 264 261 276 286 284 278 275 278 274 270 271 276 274 266 274 286 290 289 285 280 278 276 274 266 257 251 248 248 249 251 252 253 255 256 256 258 261 262 262 263
241 248 246 240 250 263 276 289 293 290 291 292 291 285 276 269 271 281 285 284 286 289 288 287 285 281 275 262 258 254 252 251 252 252 252 253 255 257 258 259 260 262 263 261
242 250 254 255 260 269 274 279 285 289 293 295 297 295 287 281 279 282 284 284 283 286 286 282 282 282 272 263 260 259 257 257 257 256 255 255 257 258 260 261 262 261 262 261
248 256 265 274 273 268 269 271 275 280 282 283 290 294 290 287 285 287 289 289 291 289 285 282 278 274 268 264 262 263 262 257 252 253 255 256 258 258 258 260 262 263 262 262
Height
1489 1488 1488 1486 1487 1489 1489 1481 1477 1470 1472 1470 1473 1475 1476 1477 1477 1477 1477 1477 1477 1477 1477 1477 1476 1476 1475 1474 1474 1473 1472 1472 1472 1471 1471 1471 1470 1470 1469 1469 1469 1468 1467 1467
1489 1488 1488 1485 1481 1482 1483 1480 1477 1475 1472 1470 1472 1473 1474 1474 1474 1475 1475 1475 1475 1474 1474 1474 1474 1473 1472 1472 1471 1470 1470 1470 1469 1468 1468 1467 1467 1466 1466 1465 1465 1464 1464 1463
1481 1487 1487 1476 1470 1474 1474 1472 1472 1469 1465 1468 1469 1470 1470 1470 1471 1472 1472 1472 1472 1472 1472 1471 1471 1470 1470 1469 1468 1468 1467 1467 1466 1466 1465 1464 1463 1463 1462 1462 1461 1460 1460 1459
1483 1486 1478 1461 1466 1466 1467 1466 1467 1466 1465 1465 1465 1466 1466 1467 1468 1468 1469 1469 1469 1469 1469 1469 1468 1468 1467 1466 1466 1465 1465 1464 1463 1463 1462 1461 1460 1460 1459 1458 1457 1457 1456 1456
1481 1473 1462 1461 1464 1465 1465 1461 1462 1463 1463 1464 1464 1464 1463 1464 1465 1465 1465 1466 1466 1466 1466 1465 1465 1465 1464 1464 1463 1463 1462 1461 1461 1460 1459 1458 1458 1457 1456 1455 1454 1453 1453 1452
1478 1470 1460 1454 1460 1462 1464 1458 1458 1459 1460 1461 1462 1461 1459 1461 1461 1462 1463 1463 1463 1463 1462 1462 1462 1461 1461 1461 1460 1460 1459 1459 1458 1458 1457 1456 1455 1454 1453 1452 1451 1450 1449 1448
1473 1466 1456 1457 1460 1461 1460 1452 1455 1456 1456 1458 1459 1458 1458 1458 1459 1459 1460 1460 1460 1460 1459 1459 1459 1459 1458 1458 1457 1457 1457 1456 1455 1455 1454 1453 1451 1450 1449 1448 1447 1446 1445 1444
1470 1465 1457 1457 1459 1457 1453 1453 1453 1453 1454 1455 1455 1455 1455 1456 1456 1457 1457 1457 1457 1457 1457 1456 1456 1456 1455 1455 1455 1454 1454 1453 1452 1451 1450 1449 1448 1447 1446 1445 1444 1443 1442 1441
1459 1455 1454 1454 1453 1452 1452 1452 1452 1452 1452 1453 1453 1453 1453 1453 1454 1454 1455 1455 1455 1454 1454 1454 1454 1453 1453 1452 1452 1451 1450 1450 1449 1448 1447 1446 1445 1444 1443 1442 1441 1439 1438 1437
1457 1452 1452 1451 1450 1450 1450 1450 1450 1450 1450 1451 1451 1451 1451 1451 1451 1452 1452 1452 1452 1452 1451 1451 1451 1451 1450 1449 1449 1448 1447 1446 1445 1444 1443 1442 1441 1440 1439 1438 1437 1436 1435 1434
1453 1450 1449 1447 1447 1447 1448 1448 1448 1448 1448 1448 1448 1448 1449 1449 1449 1449 1449 1449 1449 1449 1449 1448 1448 1448 1447 1446 1446 1445 1444 1443 1442 1441 1440 1439 1438 1437 1436 1435 1435 1434 1432 1431
1443 1443 1444 1443 1443 1444 1445 1445 1445 1445 1445 1446 1446 1446 1446 1446 1446 1446 1446 1446 1446 1446 1445 1445 1445 1444 1444 1443 1442 1441 1440 1440 1438 1437 1437 1436 1434 1433 1432 1432 1431 1430 1429 1428
1440 1439 1440 1440 1441 1442 1442 1442 1442 1443 1443 1443 1443 1444 1444 1443 1443 1443 1443 1443 1443 1442 1442 1442 1441 1441 1440 1440 1439 1438 1437 1436 1435 1434 1433 1432 1431 1430 1429 1428 1427 1426 1425 1424
1436 1437 1437 1437 1438 1439 1439 1439 1439 1440 1440 1440 1440 1441 1441 1440 1440 1440 1440 1440 1439 1439 1438 1438 1437 1437 1436 1436 1435 1434 1434 1433 1432 1431 1430 1429 1428 1427 1426 1424 1423 1422 1421 1421
1433 1434 1434 1434 1435 1436 1436 1437 1436 1437 1437 1437 1438 1438 1438 1437 1437 1436 1436 1436 1435 1435 1434 1434 1433 1433 1433 1432 1431 1431 1430 1429 1428 1427 1427 1426 1425 1423 1422 1421 1420 1419 1418 1417
1429 1430 1431 1431 1432 1433 1433 1434 1434 1434 1434 1434 1434 1434 1434 1434 1433 1433 1432 1432 1431 1431 1430 1430 1429 1429 1428 1428 1427 1426 1426 1425 1424 1424 1423 1422 1421 1420 1419 1418 1417 1416 1415 1414
1426 1426 1427 1428 1428 1429 1430 1431 1431 1431 1431 1431 1431 1431 1431 1430 1429 1429 1428 1428 1428 1427 1426 1426 1425 1424 1424 1424 1423 1422 1422 1421 1421 1420 1419 1418 1417 1416 1416 1415 1414 1413 1412 1411
1423 1424 1424 1425 1426 1427 1427 1428 1428 1428 1428 1428 1428 1428 1427 1426 1426 1425 1425 1424 1423 1422 1422 1421 1420 1420 1419 1419 1419 1418 1418 1417 1417 1416 1415 1415 1414 1413 1412 1411 1410 1409 1408 1407
1421 1422 1423 1423 1424 1425 1425 1425 1425 1425 1425 1425 1424 1424 1423 1423 1422 1421 1421 1420 1419 1418 1417 1417 1416 1415 1415 1415 1415 1414 1414 1413 1412 1412 1412 1411 1410 1409 1409 1408 1407 1406 1405 1404
1420 1421 1421 1422 1422 1422 1422 1422 1422 1422 1422 1422 1421 1420 1420 1419 1418 1417 1416 1415 1415 1414 1413 1413 1412 1411 1411 1411 1410 1410 1409 1409 1408 1408 1408 1407 1406 1406 1405 1404 1403 1402 1402 1401
1419 1419 1419 1419 1420 1420 1420 1420 1420 1419 1419 1419 1418 1417 1417 1416 1415 1414 1412 1411 1411 1410 1409 1408 1408 1407 1407 1406 1406 1405 1405 1405 1404 1404 1404 1403 1403 1402 1401 1401 1400 1399 1398 1397
1417 1417 1417 1417 1418 1418 1418 1418 1417 1417 1416 1416 1415 1414 1413 1412 1411 1410 1409 1408 1407 1406 1405 1404 1404 1403 1403 1402 1402 1401 1401 1401 1400 1400 1400 1399 1399 1398 1398 1397 1396 1396 1395 1394
1415 1416 1416 1416 1415 1415 1415 1415 1415 1414 1414 1413 1412 1411 1410 1409 1408 1407 1405 1404 1403 1402 1401 1400 1400 1399 1399 1398 1397 1397 1397 1397 1396 1396 1396 1395 1395 1395 1394 1393 1393 1392 1391 1391
1414 1414 1414 1414 1413 1413 1413 1412 1412 1411 1411 1410 1409 1408 1407 1405 1404 1403 1402 1400 1399 1398 1397 1397 1396 1396 1395 1394 1394 1393 1393 1393 1393 1392 1392 1392 1391 1391 1390 1390 1389 1389 1388 1387
1412 1412 1412 1411 1411 1411 1410 1409 1409 1408 1407 1407 1406 1405 1403 1402 1401 1399 1398 1396 1395 1394 1393 1393 1393 1392 1391 1391 1390 1390 1390 1389 1389 1389 1388 1388 1388 1387 1387 1386 1386 1385 1385 1384
1409 1409 1409 1409 1409 1408 1407 1407 1406 1405 1404 1403 1402 1401 1399 1398 1397 1395 1394 1393 1392 1391 1390 1389 1389 1388 1388 1387 1387 1387 1386 1386 1386 1385 1385 1384 1384 1383 1383 1383 1382 1382 1381 1380
1407 1407 1406 1406 1406 1405 1404 1404 1403 1402 1401 1399 1398 1397 1396 1394 1393 1392 1390 1389 1388 1387 1387 1386 1386 1385 1385 1384 1384 1383 1383 1383 1382 1382 1381 1381 1380 1380 1379 1379 1379 1378 1378 1377